Regional Weather Roundup
Issued by NWS Green Bay, WI

Home | Current Version | Previous Version | Text Only | Print | Product List | Glossary On
Versions: 1 2 3 4 5 6 7 8 9 10 11 12 13 14 15 16 17 18 19 20 21 22 23 24 25 26 27 28 29 30 31 32 33 34 35 36 37 38 39 40 41 42 43 44 45 46 47 48 49 50
000
ASUS43 KGRB 211211
RWRGRB

NORTH-CENTRAL AND NORTHEAST WISCONSIN REGIONAL WEATHER ROUNDUP
NATIONAL WEATHER SERVICE GREEN BAY WI
600 AM CST WED FEB 21 2018

WIZ005-009-010>012-018-019-211300-
NORTH CENTRAL WISCONSIN

CITY           SKY/WX    TMP DP  RH WIND       PRES   REMARKS
IRONWOOD       FAIR       2  -2  83 W9        30.38R WCI -13
MANITOWISH WTR FLURRIES   1  -1  91 W5        30.35R WCI  -9
ARBOR VITAE    FAIR       4   1  85 W5        30.34R WCI  -5
EAGLE RIVER    FAIR       4   0  80 W6        30.33R WCI  -6
LAND O LAKES   LGT SNOW   7   4  86 W3        30.32R
RHINELANDER    FAIR       3   0  87 W8        30.35R WCI -10
PHILLIPS       FAIR       1  -2  88 CALM      30.38R
ANTIGO         FAIR       7   4  86 NW7       30.36R WCI  -4
TOMAHAWK       FAIR       3   0  86 W5        30.39R WCI  -6
MERRILL        FAIR       7   3  85 W6        30.41R WCI  -4
$$

WIZ013-073-211300-
NORTHEAST WISCONSIN

CITY           SKY/WX    TMP DP  RH WIND       PRES   REMARKS
IRON MOUNTAIN  FAIR      13   7  77 W9        30.33R WCI   1
MARINETTE      FAIR      18  13  80 NW6       30.40R WCI  10
OCONTO         FAIR      18  10  72 NW8       30.41R WCI   8
$$

WIZ017-030-035>037-045-211300-
CENTRAL WISCONSIN

CITY           SKY/WX    TMP DP  RH WIND       PRES   REMARKS
MEDFORD        FAIR       3   0  85 W5        30.40R WCI  -6
WAUSAU         FAIR       8   4  83 W9        30.40R WCI  -5
MOSINEE        CLEAR      9   5  85 W9        30.42R WCI  -5
MARSHFIELD     FAIR       6   1  80 W9        30.42R WCI  -8
WISC RAPIDS    FAIR      11   4  73 NW8       30.46R WCI  -1
STEVENS POINT  FAIR       9   6  86 W6        30.44R WCI  -1
WAUPACA        FAIR      17  10  73 W7        30.45R WCI   8
SHAWANO        FAIR      17  10  74 W5        30.42R
CLINTONVILLE   FAIR      16   9  72 W8        30.43R WCI   6
WAUTOMA        FAIR      15  10  80 NW7       30.46R WCI   5
$$

WIZ038-039-048-051-211300-
FOX VALLEY

CITY           SKY/WX    TMP DP  RH WIND       PRES   REMARKS
NWS GREEN BAY  FAIR      19  10  68 NW13      30.42R WCI   6
APPLETON       PTCLDY    18   9  68 NW13      30.39R WCI   4
OSHKOSH        FAIR      18  11  74 NW10      30.43R WCI   6
FOND DU LAC    FAIR      19  11  70 NW10      30.43R WCI   7
$$

WIZ022-050-052-211300-
EAST CENTRAL WISCONSIN

CITY           SKY/WX    TMP DP  RH WIND       PRES   REMARKS
EPHRAIM        FAIR      18  13  81 NW7       30.37R WCI   8
WASHINGTON ISL CLOUDY    19  13  79 NW6       30.37R
STURGEON BAY   FAIR      19  14  81 W10       30.40R WCI   7
MANITOWOC      FAIR      21  15  78 W12       30.41R WCI   9
SHEBOYGAN      FAIR      21  15  78 NW13G20   30.41R WCI   9
$$

LMZ563-521-522-541>543-211300-
LAKESHORE

STATION/POSITION TIME  TEMP    WIND        PRES    VSBY  WAVE
                       AIR SEA DIR/SP/G                  HT/PER
                 (UTC) (F)     (DEG/KT/KT) (MB)    (MI)  (FT/S)
SHEBOYGAN LKSHOR 1200   23     300/ 11/ 14 1030.7R
KEWAUNEE LKSHORE 1142   21     310/ 11/ 14 1028.1R
NORTHPORT PIER   1140   21                 1028.1R
MENOMINEE LKSHOR 1142   19     270/  8/ 13 1028.4R
$$



USA.gov is the U.S. government's official web portal to all federal, state and local government web resources and services.